Tracking 23610 objects as of 20-Sep-2021
HD Live streaming from Space Station
objects crossing your sky now

PEGASUS R/B

Track PEGASUS R/B now!
10-day predictions


NORAD ID: 22491
Int'l Code: 1993-009C
Perigee: 687.9 km
Apogee: 755.3 km
Inclination: 25.0 °
Period: 99.1 minutes
Semi major axis: 7092 km
RCS: 0.1679 m2 (medium)
Launch date: February 9, 1993
Source: United States (US)
Launch site: AIR FORCE EASTERN TEST RANGE (AFETR)

Note: This is a ROCKET BODY
aabbcc
Your satellite tracking list
Your tracking list is empty




NASA's NSSDC Master Catalog

Two Line Element Set (TLE):
1 22491U 93009C   21262.91949387  .00000321  00000-0  28249-4 0  9997
2 22491  24.9770 139.4510 0047501 231.2501 128.3756 14.53440106517152
Source of the keplerian elements: AFSPC